Tracking 35331 objects as of 14-Sep-2026
HD Live streaming from Space Station
objects crossing your sky now

NSAT 110

Track NSAT 110 now!
NSAT 110 is classified as:


NORAD ID: 26559
Int'l Code: 2000-060A
Launch date: October 6, 2000
Source: Japan (JPN)
Launch site: FRENCH GUIANA (FRGUI)

24 Ku-band; voice and video communications to Japan.
Your satellite tracking list
Your tracking list is empty




NASA's NSSDC Master Catalog

Two Line Element Set (TLE):
1 26559U 00060A   26257.05581000  .00000014  00000-0  00000+0 0  9998
2 26559   7.0155  69.1002 0005645  54.1014 147.2884  0.99177990 94705
Source of the keplerian elements: AFSPC